Location: Aufkirchen
(47.9603°N, 11.3653°E)
Time: 07:40:54
(UTC+01:00)

Transit 4A - Pass Details

Date: 26 November 2020
Orbit: 864 x 980 km, 66.8° (Epoch: 25 January)

Event Time Altitude Azimuth Distance (km) Brightness Sun altitude
Rises 10:09:10 0° 239° (WSW) 3,634 11.0 16.5°
Reaches altitude 10° 10:11:51 10° 247° (WSW) 2,703 10.4 16.7°
Maximum altitude 10:17:49 42° 316° (NW) 1,373 8.6 17.1°
Drops below altitude 10° 10:23:54 10° 27° (NNE) 2,741 10.1 17.6°
Sets 10:26:39 0° 34° (NE) 3,690 10.7 17.7°
